Eglinton, United Kingdom

8:52 PM BST on April 27, 2017 (GMT +0100)
Eglinton

Weather History for EGAE - January, 2013

Change the Weather History Date:

Friday, January 18, 2013

  Actual Average Record
Temperature  
Mean Temperature 36 °F -  
Max Temperature 41 °F 44 °F 55 °F (2008)
Min Temperature 32 °F 38 °F 21 °F (2001)
Degree Days  
Heating Degree Days 28    
Moisture  
Dew Point 34 °F    
Average Humidity 89    
Maximum Humidity 100    
Minimum Humidity 81    
Precipitation  
Precipitation 0.00 in - - ()
Sea Level Pressure  
Sea Level Pressure 29.34 in    
Wind  
Wind Speed 20 mph ()    
Max Wind Speed 33 mph    
Max Gust Speed 47 mph    
Visibility 3.9 miles    
Events Rain , Snow    
Averages and records for this station are not official NWS values.
T = Trace of Precipitation, MM = Missing Value Source: Averaged Metar Reports

Daily Weather History Graph

Daily Weather History Graph

Search for Another Location

Airport or City:

Trip Planner

Search our weather history database for the weather conditions in past years. The results will help you decide how hot, cold, wet, or windy it might be!

Date:

Astronomy

Jan. 18, 2013 Rise Set
Actual Time 8:40 AM GMT 4:37 PM GMT
Civil Twilight 7:58 AM GMT 5:20 PM GMT
Nautical Twilight 7:12 AM GMT 6:05 PM GMT
Astronomical Twilight 6:29 AM GMT 6:49 PM GMT
Moon 10:50 AM GMT (1/18) 12:32 AM GMT (1/18)
Length of Visible Light 9h 21m
Length of Day
7h 56m
Waxing Crescent, 45% of the Moon is Illuminated
Jan 18
Waxing Crescent
Jan 18
First Quarter
Jan 27
Full
Feb 3
Last Quarter
Feb 10
New

Hourly Weather History & Observations

Time (GMT) Temp. Windchill Dew Point Humidity Pressure Visibility Wind Dir Wind Speed Gust Speed Precip Events Conditions
5:50 AM 41.0 °F 31.9 °F 35.6 °F 81% 29.42 in 6.2 mi ESE 19.6 mph - N/A   Mostly Cloudy
6:20 AM 41.0 °F 31.9 °F 35.6 °F 81% 29.42 in 6.2 mi ESE 19.6 mph - N/A Rain Light Rain
6:50 AM 41.0 °F 31.9 °F 35.6 °F 81% 29.42 in 5.6 mi ESE 19.6 mph - N/A Rain Light Rain
7:20 AM 41.0 °F 32.2 °F 35.6 °F 81% 29.42 in 6.2 mi ESE 18.4 mph - N/A Rain Light Rain
7:50 AM 41.0 °F 32.2 °F 35.6 °F 81% 29.39 in 5.0 mi ESE 18.4 mph - N/A Rain Light Rain
8:20 AM 39.2 °F 29.0 °F 35.6 °F 87% 29.42 in 3.7 mi ESE 21.9 mph - N/A Rain Light Rain
8:50 AM 39.2 °F 29.6 °F 35.6 °F 87% 29.39 in 3.7 mi ESE 19.6 mph - N/A Rain Light Rain
9:20 AM 39.2 °F 30.5 °F 35.6 °F 87% 29.39 in 5.0 mi ESE 16.1 mph - N/A Rain Light Rain
9:50 AM 39.2 °F 30.5 °F 35.6 °F 87% 29.39 in 5.0 mi ESE 16.1 mph - N/A Rain Light Rain
10:20 AM 37.4 °F 27.5 °F 35.6 °F 93% 29.39 in 5.0 mi ESE 18.4 mph - N/A Rain Light Rain
10:50 AM 39.2 °F 29.3 °F 35.6 °F 87% 29.39 in 5.0 mi ESE 20.7 mph - N/A Rain Light Rain
11:20 AM 39.2 °F 28.5 °F 35.6 °F 87% 29.36 in 5.0 mi ESE 24.2 mph - N/A Rain Light Rain
11:50 AM 39.2 °F 28.7 °F 35.6 °F 87% 29.36 in 5.0 mi ESE 23.0 mph 34.5 mph N/A Rain Light Rain
12:20 PM 39.2 °F 28.5 °F 33.8 °F 81% 29.33 in 5.6 mi ESE 24.2 mph 35.7 mph N/A Rain Light Rain
12:50 PM 39.2 °F 26.8 °F 33.8 °F 81% 29.33 in 5.6 mi ESE 33.4 mph 47.2 mph N/A Rain Light Rain
1:20 PM 37.4 °F 25.4 °F 33.8 °F 87% 29.33 in 5.0 mi ESE 27.6 mph 39.1 mph N/A Rain Light Rain
1:50 PM 37.4 °F 26.4 °F 33.8 °F 87% 29.30 in 6.2 mi ESE 23.0 mph - N/A Rain Light Rain
2:20 PM 35.6 °F 23.4 °F 32.0 °F 87% 29.30 in 6.2 mi ESE 25.3 mph 40.3 mph N/A Rain Light Rain
2:50 PM 35.6 °F 23.2 °F 32.0 °F 87% 29.30 in 5.0 mi ESE 26.5 mph 38.0 mph N/A Rain Light Rain
3:20 PM 35.6 °F 23.0 °F 32.0 °F 87% 29.27 in 3.7 mi ESE 27.6 mph 41.4 mph N/A Rain , Snow Rain
3:50 PM 33.8 °F 20.5 °F 32.0 °F 93% 29.27 in 1.6 mi ESE 27.6 mph - N/A Rain , Snow Rain
4:20 PM 33.8 °F 19.6 °F 32.0 °F 93% 29.27 in 1.9 mi ESE 32.2 mph 46.0 mph N/A Rain , Snow Rain
4:50 PM 33.8 °F 20.3 °F 32.0 °F 93% 29.30 in 1.0 mi ESE 28.8 mph 42.6 mph N/A Snow Light Snow
5:20 PM 33.8 °F 21.9 °F 32.0 °F 93% 29.30 in 1.0 mi ESE 21.9 mph 34.5 mph N/A Snow Light Snow
5:50 PM 33.8 °F 21.3 °F 32.0 °F 93% 29.30 in 3.1 mi ESE 24.2 mph 38.0 mph N/A Snow Light Snow
6:20 PM 33.8 °F 21.3 °F 32.0 °F 93% 29.30 in 3.1 mi ESE 24.2 mph - N/A Snow Light Snow
6:50 PM 33.8 °F 22.5 °F 32.0 °F 93% 29.30 in 1.9 mi ESE 19.6 mph 32.2 mph N/A Snow Light Snow
7:20 PM 33.8 °F 22.8 °F 32.0 °F 93% 29.30 in 1.9 mi ESE 18.4 mph - N/A Snow Light Snow
7:50 PM 33.8 °F 22.5 °F 32.0 °F 93% 29.30 in 1.9 mi East 19.6 mph - N/A Snow Light Snow
8:20 PM 33.8 °F 22.8 °F 32.0 °F 93% 29.30 in 1.9 mi East 18.4 mph - N/A Snow Light Snow
8:50 PM 33.8 °F 23.2 °F 32.0 °F 93% 29.30 in 1.6 mi East 17.3 mph - N/A Snow Light Snow
9:20 PM 32.0 °F 20.5 °F 32.0 °F 100% 29.30 in 1.6 mi East 18.4 mph - N/A Snow Light Snow
9:50 PM 33.8 °F 22.5 °F 32.0 °F 93% 29.30 in 2.2 mi East 19.6 mph - N/A Snow Light Snow
10:20 PM 33.8 °F 22.8 °F 33.8 °F 100% 29.30 in 2.8 mi East 18.4 mph - N/A Snow Light Snow
11:50 PM 33.8 °F 19.6 °F 33.8 °F 100% 29.27 in 5.6 mi ESE 32.2 mph - N/A Snow Light Snow